sat.trackr.live / text

‹ back to catalog

TIANHUI 6B

NORAD 55839 · 2023-030D

PAYLOAD ACTIVE UNKNOWN

§ Identity

Operator
Country
PRC
Launch date
2023-03-09
Launch site
TAISC
Launch vehicle
Mass (kg)
RCS (m²)

External: N2YO · Heavens-Above · Gunter

§ Orbital elements

Epoch: 2026-05-25T03:51:31.192416Z

Period
102.76 min
Inclination
99.0136°
Eccentricity
0.0001535
Mean motion
14.01351264 rev/d
Perigee alt
888.0 km
Apogee alt
890.2 km
Semi-major
7,267.3 km
B*
2.6413e-4
RAAN
153.6734°
Arg perigee
72.7412°
Mean anomaly
287.3921°
Rev number
16,416

§ Raw data

TIANHUI 6B1 55839U 23030D   26145.16077769  .00000354  00000+0  26413-3 0  99992 55839  99.0136 153.6734 0001535  72.7412 287.3921 14.01351264164163

JSON: /api/v1/satellites/55839 · /tle

For live sub-satellite position, see the globe view (requires WebGL).

§ Visibility from observer

Set your observer location to see the next 7 days of passes ≥ 10°. The values pass through the URL so the page stays shareable.

No JS? Fill the form by hand. The geolocation button needs JavaScript.